Regional Weather Roundup
Issued by NWS Albany, NY

Home | Current Version | Previous Version | Graphics & Text | Print | Product List | Glossary Off
Versions: 1 2 3 4 5 6 7 8 9 10 11 12 13 14 15 16 17 18 19 20 21 22 23 24 25 26 27

000
ASUS41 KALY 252010
RWRALY

NEW YORK STATE HOURLY WEATHER ROUNDUP
NATIONAL WEATHER SERVICE ALBANY NY
400 PM EDT THU MAY 25 2017

NOTE: "FAIR" INDICATES FEW OR NO CLOUDS BELOW 12,000 FEET WITH NO
SIGNIFICANT WEATHER AND/OR NO OBSTRUCTIONS TO VISIBILITY.

NYZ032-033-038>043-046>054-057>066-NYZ062>081-082-084-252100-
EAST


CITY           SKY/WX    TMP DP  RH WIND       PRES   REMARKS
ALBANY         LGT RAIN  57  54  89 N6        29.64F FOG
GLENS FALLS    NOT AVBL
POUGHKEEPSIE   LGT RAIN  60  57  89 NE3       29.58F FOG
NEWBURGH       DRIZZLE   59  59 100 E13       29.59F FOG
MONTGOMERY     LGT RAIN  60  58  92 NE7       29.58F FOG
WHITE PLAINS   LGT RAIN  57  55  93 E13G23    29.57F FOG
ISLIP          DRIZZLE   59  59 100 E13G21    29.57F FOG
NEW YORK CITY  CLOUDY    58  56  93 NE17      29.56F FOG
CENTRAL PARK   CLOUDY    57  57 100 E9G16     29.58F FOG
$$

NYZ005>009-017-018-044>046-055-056-252100-
CENTRAL


CITY           SKY/WX    TMP DP  RH WIND       PRES   REMARKS
FULTON         CLOUDY    57  53  86 VRB5      29.55F
SYRACUSE       LGT RAIN  56  55  97 E7        29.54F
ROME           LGT RAIN  56  54  93 SE10G18   29.58F
ELMIRA         CLOUDY    63  55  75 VRB6      29.50F
BINGHAMTON     CLOUDY    57  54  89 SE14G21   29.52F
MONTICELLO     CLOUDY    55  55 100 E10       29.59F
$$

NYZ026>034-041>043-087-252100-
NORTH


CITY           SKY/WX    TMP DP  RH WIND       PRES   REMARKS
WATERTOWN      RAIN      57  56  96 NE12      29.57F FOG
FORT DRUM      NOT AVBL
MASSENA        LGT RAIN  59  54  83 NE10      29.69F
SARANAC LAKE   RAIN      53  51  93 E9G18     29.67F
PLATTSBURGH    LGT RAIN  57  51  80 S8        29.73F
$$

NYZ001>004-010>016-019>021-085-252100-
WEST


CITY           SKY/WX    TMP DP  RH WIND       PRES   REMARKS
NIAGARA FALLS  LGT RAIN  62  56  80 E13       29.47F
BUFFALO        LGT RAIN  61  57  87 E10       29.46F
DUNKIRK        CLOUDY    61  59  93 N8        29.46S
JAMESTOWN      CLOUDY    57  52  82 SW9       29.48S
WELLSVILLE     LGT RAIN  61  56  83 VRB5      29.51F
ROCHESTER      DRIZZLE   60  57  89 E8        29.51F
PENN YAN       CLOUDY    61  55  81 E7        29.52F
$$

             KEY
       WCI = WIND CHILL INDEX
       VSB = VISIBILITY
       HX  = HEAT INDEX
$$




USA.gov is the U.S. government's official web portal to all federal, state and local government web resources and services.